Index of /20260504/WXO-DD/model_caps/3km/00/048
Name Last modified Size Description
Parent Directory -
20260504T00Z_MSC_CAPS_AbsoluteVorticity_IsbL-0250_RLatLon0.03_PT048H.grib2 2026-05-04 06:21 1.0M
20260504T00Z_MSC_CAPS_AbsoluteVorticity_IsbL-0500_RLatLon0.03_PT048H.grib2 2026-05-04 06:21 1.1M
20260504T00Z_MSC_CAPS_AbsoluteVorticity_IsbL-0700_RLatLon0.03_PT048H.grib2 2026-05-04 06:21 1.1M
20260504T00Z_MSC_CAPS_AbsoluteVorticity_IsbL-0850_RLatLon0.03_PT048H.grib2 2026-05-04 06:21 1.3M
20260504T00Z_MSC_CAPS_AbsoluteVorticity_IsbL-1000_RLatLon0.03_PT048H.grib2 2026-05-04 06:21 1.4M
20260504T00Z_MSC_CAPS_AirDensity_AGL-120m_RLatLon0.03_PT048H.grib2 2026-05-04 06:21 1.4M
20260504T00Z_MSC_CAPS_AirDensity_AGL-40m_RLatLon0.03_PT048H.grib2 2026-05-04 06:21 1.4M
20260504T00Z_MSC_CAPS_AirDensity_AGL-80m_RLatLon0.03_PT048H.grib2 2026-05-04 06:21 1.4M
20260504T00Z_MSC_CAPS_AirTemp_AGL-120m_RLatLon0.03_PT048H.grib2 2026-05-04 06:21 1.4M
20260504T00Z_MSC_CAPS_AirTemp_AGL-2m_RLatLon0.03_PT048H.grib2 2026-05-04 06:21 1.7M
20260504T00Z_MSC_CAPS_AirTemp_AGL-40m_RLatLon0.03_PT048H.grib2 2026-05-04 06:21 1.5M
20260504T00Z_MSC_CAPS_AirTemp_AGL-80m_RLatLon0.03_PT048H.grib2 2026-05-04 06:21 1.4M
20260504T00Z_MSC_CAPS_AirTemp_IsbL-0050_RLatLon0.03_PT048H.grib2 2026-05-04 06:21 691K
20260504T00Z_MSC_CAPS_AirTemp_IsbL-0100_RLatLon0.03_PT048H.grib2 2026-05-04 06:21 949K
20260504T00Z_MSC_CAPS_AirTemp_IsbL-0150_RLatLon0.03_PT048H.grib2 2026-05-04 06:21 749K
20260504T00Z_MSC_CAPS_AirTemp_IsbL-0175_RLatLon0.03_PT048H.grib2 2026-05-04 06:21 775K
20260504T00Z_MSC_CAPS_AirTemp_IsbL-0200_RLatLon0.03_PT048H.grib2 2026-05-04 06:21 793K
20260504T00Z_MSC_CAPS_AirTemp_IsbL-0225_RLatLon0.03_PT048H.grib2 2026-05-04 06:21 793K
20260504T00Z_MSC_CAPS_AirTemp_IsbL-0250_RLatLon0.03_PT048H.grib2 2026-05-04 06:21 1.0M
20260504T00Z_MSC_CAPS_AirTemp_IsbL-0275_RLatLon0.03_PT048H.grib2 2026-05-04 06:21 1.0M
20260504T00Z_MSC_CAPS_AirTemp_IsbL-0300_RLatLon0.03_PT048H.grib2 2026-05-04 06:21 1.0M
20260504T00Z_MSC_CAPS_AirTemp_IsbL-0350_RLatLon0.03_PT048H.grib2 2026-05-04 06:21 756K
20260504T00Z_MSC_CAPS_AirTemp_IsbL-0400_RLatLon0.03_PT048H.grib2 2026-05-04 06:21 763K
20260504T00Z_MSC_CAPS_AirTemp_IsbL-0450_RLatLon0.03_PT048H.grib2 2026-05-04 06:21 780K
20260504T00Z_MSC_CAPS_AirTemp_IsbL-0500_RLatLon0.03_PT048H.grib2 2026-05-04 06:21 798K
20260504T00Z_MSC_CAPS_AirTemp_IsbL-0550_RLatLon0.03_PT048H.grib2 2026-05-04 06:21 811K
20260504T00Z_MSC_CAPS_AirTemp_IsbL-0600_RLatLon0.03_PT048H.grib2 2026-05-04 06:21 829K
20260504T00Z_MSC_CAPS_AirTemp_IsbL-0650_RLatLon0.03_PT048H.grib2 2026-05-04 06:21 1.0M
20260504T00Z_MSC_CAPS_AirTemp_IsbL-0700_RLatLon0.03_PT048H.grib2 2026-05-04 06:21 1.0M
20260504T00Z_MSC_CAPS_AirTemp_IsbL-0750_RLatLon0.03_PT048H.grib2 2026-05-04 06:21 1.0M
20260504T00Z_MSC_CAPS_AirTemp_IsbL-0800_RLatLon0.03_PT048H.grib2 2026-05-04 06:21 1.0M
20260504T00Z_MSC_CAPS_AirTemp_IsbL-0850_RLatLon0.03_PT048H.grib2 2026-05-04 06:21 1.0M
20260504T00Z_MSC_CAPS_AirTemp_IsbL-0875_RLatLon0.03_PT048H.grib2 2026-05-04 06:21 1.0M
20260504T00Z_MSC_CAPS_AirTemp_IsbL-0900_RLatLon0.03_PT048H.grib2 2026-05-04 06:21 1.0M
20260504T00Z_MSC_CAPS_AirTemp_IsbL-0925_RLatLon0.03_PT048H.grib2 2026-05-04 06:21 1.1M
20260504T00Z_MSC_CAPS_AirTemp_IsbL-0950_RLatLon0.03_PT048H.grib2 2026-05-04 06:21 1.1M
20260504T00Z_MSC_CAPS_AirTemp_IsbL-0970_RLatLon0.03_PT048H.grib2 2026-05-04 06:21 1.1M
20260504T00Z_MSC_CAPS_AirTemp_IsbL-0985_RLatLon0.03_PT048H.grib2 2026-05-04 06:21 1.0M
20260504T00Z_MSC_CAPS_AirTemp_IsbL-1000_RLatLon0.03_PT048H.grib2 2026-05-04 06:21 1.0M
20260504T00Z_MSC_CAPS_AirTemp_IsbL-1015_RLatLon0.03_PT048H.grib2 2026-05-04 06:21 1.1M
20260504T00Z_MSC_CAPS_Albedo_Sfc_RLatLon0.03_PT048H.grib2 2026-05-04 06:21 2.7M
20260504T00Z_MSC_CAPS_CAPE_Sfc_RLatLon0.03_PT048H.grib2 2026-05-04 06:21 268K
20260504T00Z_MSC_CAPS_CloudWater_EAtm_RLatLon0.03_PT048H.grib2 2026-05-04 06:21 1.5M
20260504T00Z_MSC_CAPS_ConvectivePrecip-Accum_Sfc_RLatLon0.03_PT048H.grib2 2026-05-04 06:21 5.4M
20260504T00Z_MSC_CAPS_DewPointDepression_AGL-120m_RLatLon0.03_PT048H.grib2 2026-05-04 06:21 2.2M
20260504T00Z_MSC_CAPS_DewPointDepression_AGL-2m_RLatLon0.03_PT048H.grib2 2026-05-04 06:21 2.2M
20260504T00Z_MSC_CAPS_DewPointDepression_AGL-40m_RLatLon0.03_PT048H.grib2 2026-05-04 06:21 2.2M
20260504T00Z_MSC_CAPS_DewPointDepression_AGL-80m_RLatLon0.03_PT048H.grib2 2026-05-04 06:21 2.2M
20260504T00Z_MSC_CAPS_DewPointDepression_IsbL-0050_RLatLon0.03_PT048H.grib2 2026-05-04 06:21 775
20260504T00Z_MSC_CAPS_DewPointDepression_IsbL-0100_RLatLon0.03_PT048H.grib2 2026-05-04 06:21 56K
20260504T00Z_MSC_CAPS_DewPointDepression_IsbL-0150_RLatLon0.03_PT048H.grib2 2026-05-04 06:21 79K
20260504T00Z_MSC_CAPS_DewPointDepression_IsbL-0175_RLatLon0.03_PT048H.grib2 2026-05-04 06:21 241K
20260504T00Z_MSC_CAPS_DewPointDepression_IsbL-0200_RLatLon0.03_PT048H.grib2 2026-05-04 06:21 414K
20260504T00Z_MSC_CAPS_DewPointDepression_IsbL-0225_RLatLon0.03_PT048H.grib2 2026-05-04 06:21 636K
20260504T00Z_MSC_CAPS_DewPointDepression_IsbL-0250_RLatLon0.03_PT048H.grib2 2026-05-04 06:21 886K
20260504T00Z_MSC_CAPS_DewPointDepression_IsbL-0275_RLatLon0.03_PT048H.grib2 2026-05-04 06:21 1.0M
20260504T00Z_MSC_CAPS_DewPointDepression_IsbL-0300_RLatLon0.03_PT048H.grib2 2026-05-04 06:21 1.1M
20260504T00Z_MSC_CAPS_DewPointDepression_IsbL-0350_RLatLon0.03_PT048H.grib2 2026-05-04 06:21 1.1M
20260504T00Z_MSC_CAPS_DewPointDepression_IsbL-0400_RLatLon0.03_PT048H.grib2 2026-05-04 06:21 1.1M
20260504T00Z_MSC_CAPS_DewPointDepression_IsbL-0450_RLatLon0.03_PT048H.grib2 2026-05-04 06:21 1.2M
20260504T00Z_MSC_CAPS_DewPointDepression_IsbL-0500_RLatLon0.03_PT048H.grib2 2026-05-04 06:21 1.2M
20260504T00Z_MSC_CAPS_DewPointDepression_IsbL-0550_RLatLon0.03_PT048H.grib2 2026-05-04 06:21 1.3M
20260504T00Z_MSC_CAPS_DewPointDepression_IsbL-0600_RLatLon0.03_PT048H.grib2 2026-05-04 06:21 1.3M
20260504T00Z_MSC_CAPS_DewPointDepression_IsbL-0650_RLatLon0.03_PT048H.grib2 2026-05-04 06:21 1.3M
20260504T00Z_MSC_CAPS_DewPointDepression_IsbL-0700_RLatLon0.03_PT048H.grib2 2026-05-04 06:21 1.4M
20260504T00Z_MSC_CAPS_DewPointDepression_IsbL-0750_RLatLon0.03_PT048H.grib2 2026-05-04 06:21 1.4M
20260504T00Z_MSC_CAPS_DewPointDepression_IsbL-0800_RLatLon0.03_PT048H.grib2 2026-05-04 06:21 1.3M
20260504T00Z_MSC_CAPS_DewPointDepression_IsbL-0850_RLatLon0.03_PT048H.grib2 2026-05-04 06:21 1.3M
20260504T00Z_MSC_CAPS_DewPointDepression_IsbL-0875_RLatLon0.03_PT048H.grib2 2026-05-04 06:21 1.4M
20260504T00Z_MSC_CAPS_DewPointDepression_IsbL-0900_RLatLon0.03_PT048H.grib2 2026-05-04 06:21 1.4M
20260504T00Z_MSC_CAPS_DewPointDepression_IsbL-0925_RLatLon0.03_PT048H.grib2 2026-05-04 06:21 1.4M
20260504T00Z_MSC_CAPS_DewPointDepression_IsbL-0950_RLatLon0.03_PT048H.grib2 2026-05-04 06:21 1.4M
20260504T00Z_MSC_CAPS_DewPointDepression_IsbL-0970_RLatLon0.03_PT048H.grib2 2026-05-04 06:21 1.4M
20260504T00Z_MSC_CAPS_DewPointDepression_IsbL-0985_RLatLon0.03_PT048H.grib2 2026-05-04 06:21 1.4M
20260504T00Z_MSC_CAPS_DewPointDepression_IsbL-1000_RLatLon0.03_PT048H.grib2 2026-05-04 06:21 1.4M
20260504T00Z_MSC_CAPS_DewPointDepression_IsbL-1015_RLatLon0.03_PT048H.grib2 2026-05-04 06:21 1.4M
20260504T00Z_MSC_CAPS_DewPoint_AGL-120m_RLatLon0.03_PT048H.grib2 2026-05-04 06:21 3.7M
20260504T00Z_MSC_CAPS_DewPoint_AGL-2m_RLatLon0.03_PT048H.grib2 2026-05-04 06:21 1.7M
20260504T00Z_MSC_CAPS_DewPoint_AGL-40m_RLatLon0.03_PT048H.grib2 2026-05-04 06:21 3.8M
20260504T00Z_MSC_CAPS_DewPoint_AGL-80m_RLatLon0.03_PT048H.grib2 2026-05-04 06:21 3.7M
20260504T00Z_MSC_CAPS_DownwardLongwaveRadiationFlux-Accum_Sfc_RLatLon0.03_PT048H.grib2 2026-05-04 06:21 2.2M
20260504T00Z_MSC_CAPS_DownwardShortwaveRadiationFlux-Accum_NTAtm_RLatLon0.03_PT048H.grib2 2026-05-04 06:21 538K
20260504T00Z_MSC_CAPS_DownwardShortwaveRadiationFlux-Accum_Sfc_RLatLon0.03_PT048H.grib2 2026-05-04 06:21 3.1M
20260504T00Z_MSC_CAPS_FreezingRain-Accum_Sfc_RLatLon0.03_PT048H.grib2 2026-05-04 06:21 1.0M
20260504T00Z_MSC_CAPS_GeopotentialHeight_IsbL-0050_RLatLon0.03_PT048H.grib2 2026-05-04 06:21 623K
20260504T00Z_MSC_CAPS_GeopotentialHeight_IsbL-0100_RLatLon0.03_PT048H.grib2 2026-05-04 06:21 812K
20260504T00Z_MSC_CAPS_GeopotentialHeight_IsbL-0150_RLatLon0.03_PT048H.grib2 2026-05-04 06:21 603K
20260504T00Z_MSC_CAPS_GeopotentialHeight_IsbL-0175_RLatLon0.03_PT048H.grib2 2026-05-04 06:21 718K
20260504T00Z_MSC_CAPS_GeopotentialHeight_IsbL-0200_RLatLon0.03_PT048H.grib2 2026-05-04 06:21 739K
20260504T00Z_MSC_CAPS_GeopotentialHeight_IsbL-0225_RLatLon0.03_PT048H.grib2 2026-05-04 06:21 758K
20260504T00Z_MSC_CAPS_GeopotentialHeight_IsbL-0250_RLatLon0.03_PT048H.grib2 2026-05-04 06:21 768K
20260504T00Z_MSC_CAPS_GeopotentialHeight_IsbL-0275_RLatLon0.03_PT048H.grib2 2026-05-04 06:21 779K
20260504T00Z_MSC_CAPS_GeopotentialHeight_IsbL-0300_RLatLon0.03_PT048H.grib2 2026-05-04 06:21 784K
20260504T00Z_MSC_CAPS_GeopotentialHeight_IsbL-0350_RLatLon0.03_PT048H.grib2 2026-05-04 06:21 785K
20260504T00Z_MSC_CAPS_GeopotentialHeight_IsbL-0400_RLatLon0.03_PT048H.grib2 2026-05-04 06:21 782K
20260504T00Z_MSC_CAPS_GeopotentialHeight_IsbL-0450_RLatLon0.03_PT048H.grib2 2026-05-04 06:21 771K
20260504T00Z_MSC_CAPS_GeopotentialHeight_IsbL-0500_RLatLon0.03_PT048H.grib2 2026-05-04 06:21 764K
20260504T00Z_MSC_CAPS_GeopotentialHeight_IsbL-0550_RLatLon0.03_PT048H.grib2 2026-05-04 06:21 644K
20260504T00Z_MSC_CAPS_GeopotentialHeight_IsbL-0600_RLatLon0.03_PT048H.grib2 2026-05-04 06:21 641K
20260504T00Z_MSC_CAPS_GeopotentialHeight_IsbL-0650_RLatLon0.03_PT048H.grib2 2026-05-04 06:21 813K
20260504T00Z_MSC_CAPS_GeopotentialHeight_IsbL-0700_RLatLon0.03_PT048H.grib2 2026-05-04 06:21 817K
20260504T00Z_MSC_CAPS_GeopotentialHeight_IsbL-0750_RLatLon0.03_PT048H.grib2 2026-05-04 06:21 898K
20260504T00Z_MSC_CAPS_GeopotentialHeight_IsbL-0800_RLatLon0.03_PT048H.grib2 2026-05-04 06:21 830K
20260504T00Z_MSC_CAPS_GeopotentialHeight_IsbL-0850_RLatLon0.03_PT048H.grib2 2026-05-04 06:21 836K
20260504T00Z_MSC_CAPS_GeopotentialHeight_IsbL-0875_RLatLon0.03_PT048H.grib2 2026-05-04 06:21 841K
20260504T00Z_MSC_CAPS_GeopotentialHeight_IsbL-0900_RLatLon0.03_PT048H.grib2 2026-05-04 06:21 849K
20260504T00Z_MSC_CAPS_GeopotentialHeight_IsbL-0925_RLatLon0.03_PT048H.grib2 2026-05-04 06:21 858K
20260504T00Z_MSC_CAPS_GeopotentialHeight_IsbL-0950_RLatLon0.03_PT048H.grib2 2026-05-04 06:21 673K
20260504T00Z_MSC_CAPS_GeopotentialHeight_IsbL-0970_RLatLon0.03_PT048H.grib2 2026-05-04 06:21 679K
20260504T00Z_MSC_CAPS_GeopotentialHeight_IsbL-0985_RLatLon0.03_PT048H.grib2 2026-05-04 06:21 685K
20260504T00Z_MSC_CAPS_GeopotentialHeight_IsbL-1000_RLatLon0.03_PT048H.grib2 2026-05-04 06:21 691K
20260504T00Z_MSC_CAPS_GeopotentialHeight_IsbL-1015_RLatLon0.03_PT048H.grib2 2026-05-04 06:21 698K
20260504T00Z_MSC_CAPS_GeopotentialHeight_Sfc_RLatLon0.03_PT048H.grib2 2026-05-04 06:21 1.0M
20260504T00Z_MSC_CAPS_IcePellets-Accum_Sfc_RLatLon0.03_PT048H.grib2 2026-05-04 06:21 140K
20260504T00Z_MSC_CAPS_LatentHeatNetFlux_Sfc_RLatLon0.03_PT048H.grib2 2026-05-04 06:21 2.0M
20260504T00Z_MSC_CAPS_LiftedIndex-MU-VT_IsbL-0500_RLatLon0.03_PT048H.grib2 2026-05-04 06:21 3.3M
20260504T00Z_MSC_CAPS_MixedLayerThickness_Sfc_RLatLon0.03_PT048H.nc 2026-05-04 06:13 16M
20260504T00Z_MSC_CAPS_NetLongwaveRadiationFlux-Accum_Sfc_RLatLon0.03_PT048H.grib2 2026-05-04 06:21 2.9M
20260504T00Z_MSC_CAPS_NetShortwaveRadiationFlux-Accum_Sfc_RLatLon0.03_PT048H.grib2 2026-05-04 06:21 3.0M
20260504T00Z_MSC_CAPS_PlanetaryBoundaryLayerHeight_Sfc_RLatLon0.03_PT048H.grib2 2026-05-04 06:21 3.1M
20260504T00Z_MSC_CAPS_Precip-Accum_Sfc_RLatLon0.03_PT048H.grib2 2026-05-04 06:21 5.4M
20260504T00Z_MSC_CAPS_PrecipRate_Sfc_RLatLon0.03_PT048H.grib2 2026-05-04 06:21 374K
20260504T00Z_MSC_CAPS_PrecipType-Instant_Sfc_RLatLon0.03_PT048H.grib2 2026-05-04 06:21 2.0M
20260504T00Z_MSC_CAPS_Pressure_MSL_RLatLon0.03_PT048H.grib2 2026-05-04 06:21 925K
20260504T00Z_MSC_CAPS_Pressure_Sfc_RLatLon0.03_PT048H.grib2 2026-05-04 06:21 1.2M
20260504T00Z_MSC_CAPS_RadiativeTemp_Sfc_RLatLon0.03_PT048H.grib2 2026-05-04 06:21 2.1M
20260504T00Z_MSC_CAPS_Rain-Accum_Sfc_RLatLon0.03_PT048H.grib2 2026-05-04 06:21 3.0M
20260504T00Z_MSC_CAPS_RelativeHumidity_AGL-120m_RLatLon0.03_PT048H.grib2 2026-05-04 06:21 2.9M
20260504T00Z_MSC_CAPS_RelativeHumidity_AGL-2m_RLatLon0.03_PT048H.grib2 2026-05-04 06:21 3.0M
20260504T00Z_MSC_CAPS_RelativeHumidity_AGL-40m_RLatLon0.03_PT048H.grib2 2026-05-04 06:21 3.0M
20260504T00Z_MSC_CAPS_RelativeHumidity_AGL-80m_RLatLon0.03_PT048H.grib2 2026-05-04 06:21 2.9M
20260504T00Z_MSC_CAPS_RelativeHumidity_IsbL-0050_RLatLon0.03_PT048H.grib2 2026-05-04 06:21 1.0M
20260504T00Z_MSC_CAPS_RelativeHumidity_IsbL-0100_RLatLon0.03_PT048H.grib2 2026-05-04 06:21 880K
20260504T00Z_MSC_CAPS_RelativeHumidity_IsbL-0150_RLatLon0.03_PT048H.grib2 2026-05-04 06:21 555K
20260504T00Z_MSC_CAPS_RelativeHumidity_IsbL-0175_RLatLon0.03_PT048H.grib2 2026-05-04 06:21 647K
20260504T00Z_MSC_CAPS_RelativeHumidity_IsbL-0200_RLatLon0.03_PT048H.grib2 2026-05-04 06:21 683K
20260504T00Z_MSC_CAPS_RelativeHumidity_IsbL-0225_RLatLon0.03_PT048H.grib2 2026-05-04 06:21 898K
20260504T00Z_MSC_CAPS_RelativeHumidity_IsbL-0250_RLatLon0.03_PT048H.grib2 2026-05-04 06:21 1.1M
20260504T00Z_MSC_CAPS_RelativeHumidity_IsbL-0275_RLatLon0.03_PT048H.grib2 2026-05-04 06:21 1.4M
20260504T00Z_MSC_CAPS_RelativeHumidity_IsbL-0300_RLatLon0.03_PT048H.grib2 2026-05-04 06:21 1.5M
20260504T00Z_MSC_CAPS_RelativeHumidity_IsbL-0350_RLatLon0.03_PT048H.grib2 2026-05-04 06:21 1.9M
20260504T00Z_MSC_CAPS_RelativeHumidity_IsbL-0400_RLatLon0.03_PT048H.grib2 2026-05-04 06:21 1.9M
20260504T00Z_MSC_CAPS_RelativeHumidity_IsbL-0450_RLatLon0.03_PT048H.grib2 2026-05-04 06:21 2.0M
20260504T00Z_MSC_CAPS_RelativeHumidity_IsbL-0500_RLatLon0.03_PT048H.grib2 2026-05-04 06:21 2.0M
20260504T00Z_MSC_CAPS_RelativeHumidity_IsbL-0550_RLatLon0.03_PT048H.grib2 2026-05-04 06:21 2.2M
20260504T00Z_MSC_CAPS_RelativeHumidity_IsbL-0600_RLatLon0.03_PT048H.grib2 2026-05-04 06:21 2.3M
20260504T00Z_MSC_CAPS_RelativeHumidity_IsbL-0650_RLatLon0.03_PT048H.grib2 2026-05-04 06:21 2.3M
20260504T00Z_MSC_CAPS_RelativeHumidity_IsbL-0700_RLatLon0.03_PT048H.grib2 2026-05-04 06:21 2.4M
20260504T00Z_MSC_CAPS_RelativeHumidity_IsbL-0750_RLatLon0.03_PT048H.grib2 2026-05-04 06:21 2.6M
20260504T00Z_MSC_CAPS_RelativeHumidity_IsbL-0800_RLatLon0.03_PT048H.grib2 2026-05-04 06:21 2.6M
20260504T00Z_MSC_CAPS_RelativeHumidity_IsbL-0850_RLatLon0.03_PT048H.grib2 2026-05-04 06:21 2.6M
20260504T00Z_MSC_CAPS_RelativeHumidity_IsbL-0875_RLatLon0.03_PT048H.grib2 2026-05-04 06:21 2.6M
20260504T00Z_MSC_CAPS_RelativeHumidity_IsbL-0900_RLatLon0.03_PT048H.grib2 2026-05-04 06:21 2.7M
20260504T00Z_MSC_CAPS_RelativeHumidity_IsbL-0925_RLatLon0.03_PT048H.grib2 2026-05-04 06:21 2.7M
20260504T00Z_MSC_CAPS_RelativeHumidity_IsbL-0950_RLatLon0.03_PT048H.grib2 2026-05-04 06:21 2.8M
20260504T00Z_MSC_CAPS_RelativeHumidity_IsbL-0970_RLatLon0.03_PT048H.grib2 2026-05-04 06:21 2.9M
20260504T00Z_MSC_CAPS_RelativeHumidity_IsbL-0985_RLatLon0.03_PT048H.grib2 2026-05-04 06:21 2.9M
20260504T00Z_MSC_CAPS_RelativeHumidity_IsbL-1000_RLatLon0.03_PT048H.grib2 2026-05-04 06:21 3.0M
20260504T00Z_MSC_CAPS_RelativeHumidity_IsbL-1015_RLatLon0.03_PT048H.grib2 2026-05-04 06:21 2.9M
20260504T00Z_MSC_CAPS_Runoff-Accum_Sfc_RLatLon0.03_PT048H.grib2 2026-05-04 06:21 281K
20260504T00Z_MSC_CAPS_SeaIceAreaFraction_Sfc_RLatLon0.03_PT048H.nc 2026-05-04 06:13 15M
20260504T00Z_MSC_CAPS_SeaIceCompressiveStrength_Sfc_RLatLon0.03_PT048H.nc 2026-05-04 06:13 15M
20260504T00Z_MSC_CAPS_SeaIceDivergence_Sfc_RLatLon0.03_PT048H.nc 2026-05-04 06:13 15M
20260504T00Z_MSC_CAPS_SeaIceInternalPressure_Sfc_RLatLon0.03_PT048H.nc 2026-05-04 06:13 15M
20260504T00Z_MSC_CAPS_SeaIceShear_Sfc_RLatLon0.03_PT048H.nc 2026-05-04 06:13 15M
20260504T00Z_MSC_CAPS_SeaIceSnowTemp_Sfc_RLatLon0.03_PT048H.nc 2026-05-04 06:13 14M
20260504T00Z_MSC_CAPS_SeaIceSnowVolume_Sfc_RLatLon0.03_PT048H.nc 2026-05-04 06:13 15M
20260504T00Z_MSC_CAPS_SeaIceVelocityX_Sfc_RLatLon0.03_PT048H.nc 2026-05-04 06:13 15M
20260504T00Z_MSC_CAPS_SeaIceVelocityY_Sfc_RLatLon0.03_PT048H.nc 2026-05-04 06:13 15M
20260504T00Z_MSC_CAPS_SeaIceVolume_Sfc_RLatLon0.03_PT048H.nc 2026-05-04 06:13 15M
20260504T00Z_MSC_CAPS_SeaSurfaceHeight_Sfc_RLatLon0.03_PT048H.nc 2026-05-04 06:13 16M
20260504T00Z_MSC_CAPS_SeaWaterSalinity_DBS-0.5m_RLatLon0.03_PT048H.nc 2026-05-04 06:13 16M
20260504T00Z_MSC_CAPS_SeaWaterSalinity_DBS-all_RLatLon0.03_PT048H.nc 2026-05-04 06:13 107M
20260504T00Z_MSC_CAPS_SeaWaterTemp_DBS-0.5m_RLatLon0.03_PT048H.nc 2026-05-04 06:13 15M
20260504T00Z_MSC_CAPS_SeaWaterTemp_DBS-all_RLatLon0.03_PT048H.nc 2026-05-04 06:13 88M
20260504T00Z_MSC_CAPS_SeaWaterVelocityX_DBS-0.5m_RLatLon0.03_PT048H.nc 2026-05-04 06:13 17M
20260504T00Z_MSC_CAPS_SeaWaterVelocityX_DBS-all_RLatLon0.03_PT048H.nc 2026-05-04 06:13 209M
20260504T00Z_MSC_CAPS_SeaWaterVelocityY_DBS-0.5m_RLatLon0.03_PT048H.nc 2026-05-04 06:13 17M
20260504T00Z_MSC_CAPS_SeaWaterVelocityY_DBS-all_RLatLon0.03_PT048H.nc 2026-05-04 06:13 216M
20260504T00Z_MSC_CAPS_SensibleHeatNetFlux_Sfc_RLatLon0.03_PT048H.grib2 2026-05-04 06:21 2.2M
20260504T00Z_MSC_CAPS_ShowalterIndex_IsbL-0500_RLatLon0.03_PT048H.grib2 2026-05-04 06:21 3.8M
20260504T00Z_MSC_CAPS_Snow-Accum_Sfc_RLatLon0.03_PT048H.grib2 2026-05-04 06:21 4.2M
20260504T00Z_MSC_CAPS_SnowDensity_Sfc_RLatLon0.03_PT048H.grib2 2026-05-04 06:21 1.3M
20260504T00Z_MSC_CAPS_SnowDepthWaterEquivalent_Sfc_RLatLon0.03_PT048H.grib2 2026-05-04 06:21 663K
20260504T00Z_MSC_CAPS_SnowDepth_Sfc_RLatLon0.03_PT048H.grib2 2026-05-04 06:21 1.1M
20260504T00Z_MSC_CAPS_SoilTemp_DBS-0to10cm_RLatLon0.03_PT048H.grib2 2026-05-04 06:21 1.7M
20260504T00Z_MSC_CAPS_SoilTemp_Sfc_RLatLon0.03_PT048H.grib2 2026-05-04 06:21 1.8M
20260504T00Z_MSC_CAPS_SoilVolumetricIceContent_Sfc_RLatLon0.03_PT048H.grib2 2026-05-04 06:21 1.4M
20260504T00Z_MSC_CAPS_SoilVolumetricWaterContent_DBS-0to10cm_RLatLon0.03_PT048H.grib2 2026-05-04 06:21 1.3M
20260504T00Z_MSC_CAPS_SoilVolumetricWaterContent_DBS-0to1cm_RLatLon0.03_PT048H.grib2 2026-05-04 06:21 1.8M
20260504T00Z_MSC_CAPS_SpecificHumidity_AGL-120m_RLatLon0.03_PT048H.grib2 2026-05-04 06:21 1.5M
20260504T00Z_MSC_CAPS_SpecificHumidity_AGL-2m_RLatLon0.03_PT048H.grib2 2026-05-04 06:21 1.7M
20260504T00Z_MSC_CAPS_SpecificHumidity_AGL-40m_RLatLon0.03_PT048H.grib2 2026-05-04 06:21 1.5M
20260504T00Z_MSC_CAPS_SpecificHumidity_AGL-80m_RLatLon0.03_PT048H.grib2 2026-05-04 06:21 1.5M
20260504T00Z_MSC_CAPS_SpecificHumidity_IsbL-0050_RLatLon0.03_PT048H.grib2 2026-05-04 06:21 954K
20260504T00Z_MSC_CAPS_SpecificHumidity_IsbL-0100_RLatLon0.03_PT048H.grib2 2026-05-04 06:21 1.1M
20260504T00Z_MSC_CAPS_SpecificHumidity_IsbL-0150_RLatLon0.03_PT048H.grib2 2026-05-04 06:21 1.0M
20260504T00Z_MSC_CAPS_SpecificHumidity_IsbL-0175_RLatLon0.03_PT048H.grib2 2026-05-04 06:21 1.0M
20260504T00Z_MSC_CAPS_SpecificHumidity_IsbL-0200_RLatLon0.03_PT048H.grib2 2026-05-04 06:21 917K
20260504T00Z_MSC_CAPS_SpecificHumidity_IsbL-0225_RLatLon0.03_PT048H.grib2 2026-05-04 06:21 1.1M
20260504T00Z_MSC_CAPS_SpecificHumidity_IsbL-0250_RLatLon0.03_PT048H.grib2 2026-05-04 06:21 1.1M
20260504T00Z_MSC_CAPS_SpecificHumidity_IsbL-0275_RLatLon0.03_PT048H.grib2 2026-05-04 06:21 1.1M
20260504T00Z_MSC_CAPS_SpecificHumidity_IsbL-0300_RLatLon0.03_PT048H.grib2 2026-05-04 06:21 1.0M
20260504T00Z_MSC_CAPS_SpecificHumidity_IsbL-0350_RLatLon0.03_PT048H.grib2 2026-05-04 06:21 1.3M
20260504T00Z_MSC_CAPS_SpecificHumidity_IsbL-0400_RLatLon0.03_PT048H.grib2 2026-05-04 06:21 1.2M
20260504T00Z_MSC_CAPS_SpecificHumidity_IsbL-0450_RLatLon0.03_PT048H.grib2 2026-05-04 06:21 1.2M
20260504T00Z_MSC_CAPS_SpecificHumidity_IsbL-0500_RLatLon0.03_PT048H.grib2 2026-05-04 06:21 1.4M
20260504T00Z_MSC_CAPS_SpecificHumidity_IsbL-0550_RLatLon0.03_PT048H.grib2 2026-05-04 06:21 1.3M
20260504T00Z_MSC_CAPS_SpecificHumidity_IsbL-0600_RLatLon0.03_PT048H.grib2 2026-05-04 06:21 1.4M
20260504T00Z_MSC_CAPS_SpecificHumidity_IsbL-0650_RLatLon0.03_PT048H.grib2 2026-05-04 06:21 1.2M
20260504T00Z_MSC_CAPS_SpecificHumidity_IsbL-0700_RLatLon0.03_PT048H.grib2 2026-05-04 06:21 1.3M
20260504T00Z_MSC_CAPS_SpecificHumidity_IsbL-0750_RLatLon0.03_PT048H.grib2 2026-05-04 06:21 1.5M
20260504T00Z_MSC_CAPS_SpecificHumidity_IsbL-0800_RLatLon0.03_PT048H.grib2 2026-05-04 06:21 1.6M
20260504T00Z_MSC_CAPS_SpecificHumidity_IsbL-0850_RLatLon0.03_PT048H.grib2 2026-05-04 06:21 1.8M
20260504T00Z_MSC_CAPS_SpecificHumidity_IsbL-0875_RLatLon0.03_PT048H.grib2 2026-05-04 06:21 1.5M
20260504T00Z_MSC_CAPS_SpecificHumidity_IsbL-0900_RLatLon0.03_PT048H.grib2 2026-05-04 06:21 1.5M
20260504T00Z_MSC_CAPS_SpecificHumidity_IsbL-0925_RLatLon0.03_PT048H.grib2 2026-05-04 06:21 1.6M
20260504T00Z_MSC_CAPS_SpecificHumidity_IsbL-0950_RLatLon0.03_PT048H.grib2 2026-05-04 06:21 1.6M
20260504T00Z_MSC_CAPS_SpecificHumidity_IsbL-0970_RLatLon0.03_PT048H.grib2 2026-05-04 06:21 1.7M
20260504T00Z_MSC_CAPS_SpecificHumidity_IsbL-0985_RLatLon0.03_PT048H.grib2 2026-05-04 06:21 1.7M
20260504T00Z_MSC_CAPS_SpecificHumidity_IsbL-1000_RLatLon0.03_PT048H.grib2 2026-05-04 06:21 1.8M
20260504T00Z_MSC_CAPS_SpecificHumidity_IsbL-1015_RLatLon0.03_PT048H.grib2 2026-05-04 06:21 1.8M
20260504T00Z_MSC_CAPS_SpecificHumidity_Sfc_RLatLon0.03_PT048H.grib2 2026-05-04 06:21 2.1M
20260504T00Z_MSC_CAPS_StormRelativeHelicity_Sfc_RLatLon0.03_PT048H.grib2 2026-05-04 06:21 2.8M
20260504T00Z_MSC_CAPS_Thickness_IsbL-1000to0500_RLatLon0.03_PT048H.grib2 2026-05-04 06:21 476K
20260504T00Z_MSC_CAPS_TotalCloudCover_Sfc_RLatLon0.03_PT048H.grib2 2026-05-04 06:21 3.6M
20260504T00Z_MSC_CAPS_TurboclineDepth_Sfc_RLatLon0.03_PT048H.nc 2026-05-04 06:13 16M
20260504T00Z_MSC_CAPS_UpwardLongwaveRadiationFlux_NTAtm_RLatLon0.03_PT048H.grib2 2026-05-04 06:21 3.0M
20260504T00Z_MSC_CAPS_UpwardShortwaveRadiationFlux_NTAtm_RLatLon0.03_PT048H.grib2 2026-05-04 06:21 2.2M
20260504T00Z_MSC_CAPS_VerticalVelocity_IsbL-0250_RLatLon0.03_PT048H.grib2 2026-05-04 06:21 916K
20260504T00Z_MSC_CAPS_VerticalVelocity_IsbL-0500_RLatLon0.03_PT048H.grib2 2026-05-04 06:21 1.2M
20260504T00Z_MSC_CAPS_VerticalVelocity_IsbL-0700_RLatLon0.03_PT048H.grib2 2026-05-04 06:21 1.0M
20260504T00Z_MSC_CAPS_VerticalVelocity_IsbL-0850_RLatLon0.03_PT048H.grib2 2026-05-04 06:21 1.1M
20260504T00Z_MSC_CAPS_VerticalVelocity_IsbL-1000_RLatLon0.03_PT048H.grib2 2026-05-04 06:21 1.1M
20260504T00Z_MSC_CAPS_WindDir_AGL-10m_RLatLon0.03_PT048H.grib2 2026-05-04 06:21 2.4M
20260504T00Z_MSC_CAPS_WindDir_AGL-120m_RLatLon0.03_PT048H.grib2 2026-05-04 06:21 1.2M
20260504T00Z_MSC_CAPS_WindDir_AGL-40m_RLatLon0.03_PT048H.grib2 2026-05-04 06:21 1.3M
20260504T00Z_MSC_CAPS_WindDir_AGL-80m_RLatLon0.03_PT048H.grib2 2026-05-04 06:21 1.3M
20260504T00Z_MSC_CAPS_WindDir_IsbL-0050_RLatLon0.03_PT048H.grib2 2026-05-04 06:21 1.0M
20260504T00Z_MSC_CAPS_WindDir_IsbL-0100_RLatLon0.03_PT048H.grib2 2026-05-04 06:21 1.0M
20260504T00Z_MSC_CAPS_WindDir_IsbL-0150_RLatLon0.03_PT048H.grib2 2026-05-04 06:21 1.0M
20260504T00Z_MSC_CAPS_WindDir_IsbL-0175_RLatLon0.03_PT048H.grib2 2026-05-04 06:21 1.0M
20260504T00Z_MSC_CAPS_WindDir_IsbL-0200_RLatLon0.03_PT048H.grib2 2026-05-04 06:21 1.1M
20260504T00Z_MSC_CAPS_WindDir_IsbL-0225_RLatLon0.03_PT048H.grib2 2026-05-04 06:21 1.1M
20260504T00Z_MSC_CAPS_WindDir_IsbL-0250_RLatLon0.03_PT048H.grib2 2026-05-04 06:21 1.1M
20260504T00Z_MSC_CAPS_WindDir_IsbL-0275_RLatLon0.03_PT048H.grib2 2026-05-04 06:21 1.1M
20260504T00Z_MSC_CAPS_WindDir_IsbL-0300_RLatLon0.03_PT048H.grib2 2026-05-04 06:21 1.1M
20260504T00Z_MSC_CAPS_WindDir_IsbL-0350_RLatLon0.03_PT048H.grib2 2026-05-04 06:21 1.1M
20260504T00Z_MSC_CAPS_WindDir_IsbL-0400_RLatLon0.03_PT048H.grib2 2026-05-04 06:21 1.1M
20260504T00Z_MSC_CAPS_WindDir_IsbL-0450_RLatLon0.03_PT048H.grib2 2026-05-04 06:21 1.2M
20260504T00Z_MSC_CAPS_WindDir_IsbL-0500_RLatLon0.03_PT048H.grib2 2026-05-04 06:21 1.3M
20260504T00Z_MSC_CAPS_WindDir_IsbL-0550_RLatLon0.03_PT048H.grib2 2026-05-04 06:21 1.3M
20260504T00Z_MSC_CAPS_WindDir_IsbL-0600_RLatLon0.03_PT048H.grib2 2026-05-04 06:21 1.4M
20260504T00Z_MSC_CAPS_WindDir_IsbL-0650_RLatLon0.03_PT048H.grib2 2026-05-04 06:21 1.4M
20260504T00Z_MSC_CAPS_WindDir_IsbL-0700_RLatLon0.03_PT048H.grib2 2026-05-04 06:21 1.5M
20260504T00Z_MSC_CAPS_WindDir_IsbL-0750_RLatLon0.03_PT048H.grib2 2026-05-04 06:21 1.6M
20260504T00Z_MSC_CAPS_WindDir_IsbL-0800_RLatLon0.03_PT048H.grib2 2026-05-04 06:21 1.7M
20260504T00Z_MSC_CAPS_WindDir_IsbL-0850_RLatLon0.03_PT048H.grib2 2026-05-04 06:21 1.9M
20260504T00Z_MSC_CAPS_WindDir_IsbL-0875_RLatLon0.03_PT048H.grib2 2026-05-04 06:21 1.9M
20260504T00Z_MSC_CAPS_WindDir_IsbL-0900_RLatLon0.03_PT048H.grib2 2026-05-04 06:21 2.0M
20260504T00Z_MSC_CAPS_WindDir_IsbL-0925_RLatLon0.03_PT048H.grib2 2026-05-04 06:21 2.0M
20260504T00Z_MSC_CAPS_WindDir_IsbL-0950_RLatLon0.03_PT048H.grib2 2026-05-04 06:21 2.1M
20260504T00Z_MSC_CAPS_WindDir_IsbL-0970_RLatLon0.03_PT048H.grib2 2026-05-04 06:21 2.1M
20260504T00Z_MSC_CAPS_WindDir_IsbL-0985_RLatLon0.03_PT048H.grib2 2026-05-04 06:21 2.2M
20260504T00Z_MSC_CAPS_WindDir_IsbL-1000_RLatLon0.03_PT048H.grib2 2026-05-04 06:21 2.2M
20260504T00Z_MSC_CAPS_WindDir_IsbL-1015_RLatLon0.03_PT048H.grib2 2026-05-04 06:21 2.3M
20260504T00Z_MSC_CAPS_WindGust-Max_AGL-10m_RLatLon0.03_PT048H.grib2 2026-05-04 06:21 2.4M
20260504T00Z_MSC_CAPS_WindGust-Min_AGL-10m_RLatLon0.03_PT048H.grib2 2026-05-04 06:21 2.6M
20260504T00Z_MSC_CAPS_WindGust_AGL-10m_RLatLon0.03_PT048H.grib2 2026-05-04 06:21 2.6M
20260504T00Z_MSC_CAPS_WindSpeed_AGL-10m_RLatLon0.03_PT048H.grib2 2026-05-04 06:21 2.1M
20260504T00Z_MSC_CAPS_WindSpeed_AGL-120m_RLatLon0.03_PT048H.grib2 2026-05-04 06:21 1.2M
20260504T00Z_MSC_CAPS_WindSpeed_AGL-40m_RLatLon0.03_PT048H.grib2 2026-05-04 06:21 1.2M
20260504T00Z_MSC_CAPS_WindSpeed_AGL-80m_RLatLon0.03_PT048H.grib2 2026-05-04 06:21 1.2M
20260504T00Z_MSC_CAPS_WindSpeed_IsbL-0050_RLatLon0.03_PT048H.grib2 2026-05-04 06:21 961K
20260504T00Z_MSC_CAPS_WindSpeed_IsbL-0100_RLatLon0.03_PT048H.grib2 2026-05-04 06:21 1.0M
20260504T00Z_MSC_CAPS_WindSpeed_IsbL-0150_RLatLon0.03_PT048H.grib2 2026-05-04 06:21 1.0M
20260504T00Z_MSC_CAPS_WindSpeed_IsbL-0175_RLatLon0.03_PT048H.grib2 2026-05-04 06:21 1.1M
20260504T00Z_MSC_CAPS_WindSpeed_IsbL-0200_RLatLon0.03_PT048H.grib2 2026-05-04 06:21 1.2M
20260504T00Z_MSC_CAPS_WindSpeed_IsbL-0225_RLatLon0.03_PT048H.grib2 2026-05-04 06:21 958K
20260504T00Z_MSC_CAPS_WindSpeed_IsbL-0250_RLatLon0.03_PT048H.grib2 2026-05-04 06:21 972K
20260504T00Z_MSC_CAPS_WindSpeed_IsbL-0275_RLatLon0.03_PT048H.grib2 2026-05-04 06:21 1.0M
20260504T00Z_MSC_CAPS_WindSpeed_IsbL-0300_RLatLon0.03_PT048H.grib2 2026-05-04 06:21 1.0M
20260504T00Z_MSC_CAPS_WindSpeed_IsbL-0350_RLatLon0.03_PT048H.grib2 2026-05-04 06:21 1.0M
20260504T00Z_MSC_CAPS_WindSpeed_IsbL-0400_RLatLon0.03_PT048H.grib2 2026-05-04 06:21 1.0M
20260504T00Z_MSC_CAPS_WindSpeed_IsbL-0450_RLatLon0.03_PT048H.grib2 2026-05-04 06:21 1.0M
20260504T00Z_MSC_CAPS_WindSpeed_IsbL-0500_RLatLon0.03_PT048H.grib2 2026-05-04 06:21 1.0M
20260504T00Z_MSC_CAPS_WindSpeed_IsbL-0550_RLatLon0.03_PT048H.grib2 2026-05-04 06:21 1.0M
20260504T00Z_MSC_CAPS_WindSpeed_IsbL-0600_RLatLon0.03_PT048H.grib2 2026-05-04 06:21 1.5M
20260504T00Z_MSC_CAPS_WindSpeed_IsbL-0650_RLatLon0.03_PT048H.grib2 2026-05-04 06:21 1.5M
20260504T00Z_MSC_CAPS_WindSpeed_IsbL-0700_RLatLon0.03_PT048H.grib2 2026-05-04 06:21 1.5M
20260504T00Z_MSC_CAPS_WindSpeed_IsbL-0750_RLatLon0.03_PT048H.grib2 2026-05-04 06:21 1.6M
20260504T00Z_MSC_CAPS_WindSpeed_IsbL-0800_RLatLon0.03_PT048H.grib2 2026-05-04 06:21 1.7M
20260504T00Z_MSC_CAPS_WindSpeed_IsbL-0850_RLatLon0.03_PT048H.grib2 2026-05-04 06:21 1.9M
20260504T00Z_MSC_CAPS_WindSpeed_IsbL-0875_RLatLon0.03_PT048H.grib2 2026-05-04 06:21 1.9M
20260504T00Z_MSC_CAPS_WindSpeed_IsbL-0900_RLatLon0.03_PT048H.grib2 2026-05-04 06:21 1.8M
20260504T00Z_MSC_CAPS_WindSpeed_IsbL-0925_RLatLon0.03_PT048H.grib2 2026-05-04 06:21 1.8M
20260504T00Z_MSC_CAPS_WindSpeed_IsbL-0950_RLatLon0.03_PT048H.grib2 2026-05-04 06:21 1.9M
20260504T00Z_MSC_CAPS_WindSpeed_IsbL-0970_RLatLon0.03_PT048H.grib2 2026-05-04 06:21 2.1M
20260504T00Z_MSC_CAPS_WindSpeed_IsbL-0985_RLatLon0.03_PT048H.grib2 2026-05-04 06:21 2.1M
20260504T00Z_MSC_CAPS_WindSpeed_IsbL-1000_RLatLon0.03_PT048H.grib2 2026-05-04 06:21 2.1M
20260504T00Z_MSC_CAPS_WindSpeed_IsbL-1015_RLatLon0.03_PT048H.grib2 2026-05-04 06:21 2.1M
20260504T00Z_MSC_CAPS_WindU_AGL-10m_RLatLon0.03_PT048H.grib2 2026-05-04 06:21 1.9M
20260504T00Z_MSC_CAPS_WindU_AGL-120m_RLatLon0.03_PT048H.grib2 2026-05-04 06:21 910K
20260504T00Z_MSC_CAPS_WindU_AGL-40m_RLatLon0.03_PT048H.grib2 2026-05-04 06:21 1.2M
20260504T00Z_MSC_CAPS_WindU_AGL-80m_RLatLon0.03_PT048H.grib2 2026-05-04 06:21 1.2M
20260504T00Z_MSC_CAPS_WindU_IsbL-0050_RLatLon0.03_PT048H.grib2 2026-05-04 06:21 716K
20260504T00Z_MSC_CAPS_WindU_IsbL-0100_RLatLon0.03_PT048H.grib2 2026-05-04 06:21 961K
20260504T00Z_MSC_CAPS_WindU_IsbL-0150_RLatLon0.03_PT048H.grib2 2026-05-04 06:21 926K
20260504T00Z_MSC_CAPS_WindU_IsbL-0175_RLatLon0.03_PT048H.grib2 2026-05-04 06:21 737K
20260504T00Z_MSC_CAPS_WindU_IsbL-0200_RLatLon0.03_PT048H.grib2 2026-05-04 06:21 885K
20260504T00Z_MSC_CAPS_WindU_IsbL-0225_RLatLon0.03_PT048H.grib2 2026-05-04 06:21 901K
20260504T00Z_MSC_CAPS_WindU_IsbL-0250_RLatLon0.03_PT048H.grib2 2026-05-04 06:21 918K
20260504T00Z_MSC_CAPS_WindU_IsbL-0275_RLatLon0.03_PT048H.grib2 2026-05-04 06:21 923K
20260504T00Z_MSC_CAPS_WindU_IsbL-0300_RLatLon0.03_PT048H.grib2 2026-05-04 06:21 930K
20260504T00Z_MSC_CAPS_WindU_IsbL-0350_RLatLon0.03_PT048H.grib2 2026-05-04 06:21 947K
20260504T00Z_MSC_CAPS_WindU_IsbL-0400_RLatLon0.03_PT048H.grib2 2026-05-04 06:21 959K
20260504T00Z_MSC_CAPS_WindU_IsbL-0450_RLatLon0.03_PT048H.grib2 2026-05-04 06:21 1.0M
20260504T00Z_MSC_CAPS_WindU_IsbL-0500_RLatLon0.03_PT048H.grib2 2026-05-04 06:21 1.0M
20260504T00Z_MSC_CAPS_WindU_IsbL-0550_RLatLon0.03_PT048H.grib2 2026-05-04 06:21 931K
20260504T00Z_MSC_CAPS_WindU_IsbL-0600_RLatLon0.03_PT048H.grib2 2026-05-04 06:21 1.0M
20260504T00Z_MSC_CAPS_WindU_IsbL-0650_RLatLon0.03_PT048H.grib2 2026-05-04 06:21 1.0M
20260504T00Z_MSC_CAPS_WindU_IsbL-0700_RLatLon0.03_PT048H.grib2 2026-05-04 06:21 1.0M
20260504T00Z_MSC_CAPS_WindU_IsbL-0750_RLatLon0.03_PT048H.grib2 2026-05-04 06:21 1.1M
20260504T00Z_MSC_CAPS_WindU_IsbL-0800_RLatLon0.03_PT048H.grib2 2026-05-04 06:21 1.2M
20260504T00Z_MSC_CAPS_WindU_IsbL-0850_RLatLon0.03_PT048H.grib2 2026-05-04 06:21 1.2M
20260504T00Z_MSC_CAPS_WindU_IsbL-0875_RLatLon0.03_PT048H.grib2 2026-05-04 06:21 1.3M
20260504T00Z_MSC_CAPS_WindU_IsbL-0900_RLatLon0.03_PT048H.grib2 2026-05-04 06:21 1.3M
20260504T00Z_MSC_CAPS_WindU_IsbL-0925_RLatLon0.03_PT048H.grib2 2026-05-04 06:21 1.4M
20260504T00Z_MSC_CAPS_WindU_IsbL-0950_RLatLon0.03_PT048H.grib2 2026-05-04 06:21 1.4M
20260504T00Z_MSC_CAPS_WindU_IsbL-0970_RLatLon0.03_PT048H.grib2 2026-05-04 06:21 1.4M
20260504T00Z_MSC_CAPS_WindU_IsbL-0985_RLatLon0.03_PT048H.grib2 2026-05-04 06:21 1.8M
20260504T00Z_MSC_CAPS_WindU_IsbL-1000_RLatLon0.03_PT048H.grib2 2026-05-04 06:21 1.9M
20260504T00Z_MSC_CAPS_WindU_IsbL-1015_RLatLon0.03_PT048H.grib2 2026-05-04 06:21 1.9M
20260504T00Z_MSC_CAPS_WindV_AGL-10m_RLatLon0.03_PT048H.grib2 2026-05-04 06:21 1.9M
20260504T00Z_MSC_CAPS_WindV_AGL-120m_RLatLon0.03_PT048H.grib2 2026-05-04 06:21 913K
20260504T00Z_MSC_CAPS_WindV_AGL-40m_RLatLon0.03_PT048H.grib2 2026-05-04 06:21 1.2M
20260504T00Z_MSC_CAPS_WindV_AGL-80m_RLatLon0.03_PT048H.grib2 2026-05-04 06:21 920K
20260504T00Z_MSC_CAPS_WindV_IsbL-0050_RLatLon0.03_PT048H.grib2 2026-05-04 06:21 768K
20260504T00Z_MSC_CAPS_WindV_IsbL-0100_RLatLon0.03_PT048H.grib2 2026-05-04 06:21 790K
20260504T00Z_MSC_CAPS_WindV_IsbL-0150_RLatLon0.03_PT048H.grib2 2026-05-04 06:21 915K
20260504T00Z_MSC_CAPS_WindV_IsbL-0175_RLatLon0.03_PT048H.grib2 2026-05-04 06:21 725K
20260504T00Z_MSC_CAPS_WindV_IsbL-0200_RLatLon0.03_PT048H.grib2 2026-05-04 06:21 872K
20260504T00Z_MSC_CAPS_WindV_IsbL-0225_RLatLon0.03_PT048H.grib2 2026-05-04 06:21 892K
20260504T00Z_MSC_CAPS_WindV_IsbL-0250_RLatLon0.03_PT048H.grib2 2026-05-04 06:21 701K
20260504T00Z_MSC_CAPS_WindV_IsbL-0275_RLatLon0.03_PT048H.grib2 2026-05-04 06:21 710K
20260504T00Z_MSC_CAPS_WindV_IsbL-0300_RLatLon0.03_PT048H.grib2 2026-05-04 06:21 716K
20260504T00Z_MSC_CAPS_WindV_IsbL-0350_RLatLon0.03_PT048H.grib2 2026-05-04 06:21 728K
20260504T00Z_MSC_CAPS_WindV_IsbL-0400_RLatLon0.03_PT048H.grib2 2026-05-04 06:21 953K
20260504T00Z_MSC_CAPS_WindV_IsbL-0450_RLatLon0.03_PT048H.grib2 2026-05-04 06:21 1.0M
20260504T00Z_MSC_CAPS_WindV_IsbL-0500_RLatLon0.03_PT048H.grib2 2026-05-04 06:21 1.0M
20260504T00Z_MSC_CAPS_WindV_IsbL-0550_RLatLon0.03_PT048H.grib2 2026-05-04 06:21 1.0M
20260504T00Z_MSC_CAPS_WindV_IsbL-0600_RLatLon0.03_PT048H.grib2 2026-05-04 06:21 1.0M
20260504T00Z_MSC_CAPS_WindV_IsbL-0650_RLatLon0.03_PT048H.grib2 2026-05-04 06:21 1.0M
20260504T00Z_MSC_CAPS_WindV_IsbL-0700_RLatLon0.03_PT048H.grib2 2026-05-04 06:21 1.3M
20260504T00Z_MSC_CAPS_WindV_IsbL-0750_RLatLon0.03_PT048H.grib2 2026-05-04 06:21 1.4M
20260504T00Z_MSC_CAPS_WindV_IsbL-0800_RLatLon0.03_PT048H.grib2 2026-05-04 06:21 1.2M
20260504T00Z_MSC_CAPS_WindV_IsbL-0850_RLatLon0.03_PT048H.grib2 2026-05-04 06:21 1.3M
20260504T00Z_MSC_CAPS_WindV_IsbL-0875_RLatLon0.03_PT048H.grib2 2026-05-04 06:21 1.4M
20260504T00Z_MSC_CAPS_WindV_IsbL-0900_RLatLon0.03_PT048H.grib2 2026-05-04 06:21 1.4M
20260504T00Z_MSC_CAPS_WindV_IsbL-0925_RLatLon0.03_PT048H.grib2 2026-05-04 06:21 1.4M
20260504T00Z_MSC_CAPS_WindV_IsbL-0950_RLatLon0.03_PT048H.grib2 2026-05-04 06:21 1.5M
20260504T00Z_MSC_CAPS_WindV_IsbL-0970_RLatLon0.03_PT048H.grib2 2026-05-04 06:21 1.5M
20260504T00Z_MSC_CAPS_WindV_IsbL-0985_RLatLon0.03_PT048H.grib2 2026-05-04 06:21 1.5M
20260504T00Z_MSC_CAPS_WindV_IsbL-1000_RLatLon0.03_PT048H.grib2 2026-05-04 06:21 1.5M
20260504T00Z_MSC_CAPS_WindV_IsbL-1015_RLatLon0.03_PT048H.grib2 2026-05-04 06:21 1.9M